Location: Haieshausen
(51.8387°N, 9.9720°E)
Time: 03:02:58
(UTC+00:00)

Tsikada Rocket - Pass Details

Date: 14 July 2020
Orbit: 959 x 1008 km, 82.9° (Epoch: 10 August)

Event Time Altitude Azimuth Distance (km) Brightness Sun altitude
Rises 01:29:04 0° 348° (NNW) 3,746 7.9 -11.8°
Reaches altitude 10° 01:31:37 10° 347° (NNW) 2,795 7.1 -11.6°
Maximum altitude 01:38:02 76° 264° (W) 1,045 4.1 -11.1°
Drops below altitude 10° 01:44:25 10° 180° (S) 2,778 5.9 -10.5°
Enters shadow 01:45:06 - 179° (S) 3,032 6.1 -10.5°
